Observations for Trim Market St
| Time | AQI | Temp °C | Hum % | Pres Pa | CO μg/m³ | H₂S μg/m³ | NO μg/m³ | NO₂ μg/m³ | O₃ μg/m³ | SO₂ μg/m³ | PM1 μg/m³ | PM2.5 μg/m³ | PM10 μg/m³ |
|---|---|---|---|---|---|---|---|---|---|---|---|---|---|
| Sunday 23 August 2026 | |||||||||||||
| 07:07 | 2 | 13.9 | 69 | 56,749 | 0.4 | 0 | 3.99 | 8.44 | 47.95 | 0 | 1.43 | 2.6 | 4.37 |
| 07:06 | 2 | 13.9 | 69 | 56,732 | 0.41 | 0 | 4.25 | 10.82 | 40.57 | 0 | 1.43 | 2.6 | 4.37 |
| 07:05 | 2 | 13.9 | 69 | 56,712 | 0.42 | 0 | 4.06 | 12.69 | 37.65 | 0 | 0.71 | 3.09 | 5.01 |
| 07:04 | 2 | 13.9 | 69 | 56,697 | 0.42 | 0 | 3.33 | 13.41 | 39.68 | 0 | 2.85 | 4.06 | 6.27 |
| 07:03 | 2 | 13.9 | 69 | 56,677 | 0.4 | 0 | 3.29 | 10.28 | 41.35 | 0 | 1.43 | 3.57 | 6.27 |
| 07:02 | 2 | 13.9 | 69 | 56,661 | 0.39 | 0 | 2.96 | 8.05 | 49.94 | 0 | 0.71 | 3.08 | 5.01 |
| 07:01 | 2 | 13.8 | 69 | 56,648 | 0.4 | 0 | 2.42 | 8.11 | 48.96 | 0 | 0.71 | 3.09 | 5.01 |
| 07:00 | 2 | 13.8 | 69 | 56,640 | 0.4 | 0 | 2.12 | 8.11 | 51.24 | 0 | 1.43 | 2.6 | 4.38 |
| 06:50 | 2 | 13.7 | 69 | 56,689 | 0.39 | 0 | 2.36 | 7.8 | 51.04 | 0 | 1.43 | 3.58 | 6.27 |
| 06:49 | 2 | 13.7 | 69 | 56,693 | 0.39 | 0 | 2.15 | 8.36 | 48.12 | 0 | 1.43 | 3.09 | 5 |
| 06:47 | 2 | 13.7 | 69 | 56,712 | 0.39 | 0 | 2.05 | 7.61 | 51.24 | 0 | 1.43 | 2.6 | 5 |
| 06:45 | 2 | 13.7 | 69 | 56,743 | 0.38 | 0 | 2.08 | 7.53 | 52.03 | 0 | 1.43 | 2.61 | 4.37 |
| 06:42 | 2 | 13.7 | 69 | 56,762 | 0.37 | 0 | 2.39 | 7.8 | 50.59 | 0 | 1.43 | 4.07 | 6.27 |
| 06:41 | 2 | 13.6 | 69 | 56,781 | 0.39 | 0 | 2.43 | 8.81 | 49.49 | 0 | 0.71 | 2.61 | 5 |
| 06:40 | 2 | 13.6 | 69 | 56,796 | 0.41 | 0 | 2.48 | 9.57 | 46.06 | 0 | 1.43 | 3.1 | 6.27 |
| 06:39 | 2 | 13.6 | 69 | 56,799 | 0.4 | 0 | 2.6 | 8.42 | 49.99 | 0 | 1.43 | 4.08 | 6.26 |
| 06:38 | 2 | 13.6 | 69 | 56,800 | 0.38 | 0 | 2.34 | 7.44 | 50.72 | 0 | 0.71 | 2.61 | 4.37 |
| 06:37 | 2 | 13.6 | 69 | 56,795 | 0.38 | 0 | 2.47 | 7.44 | 50.13 | 0 | 1.43 | 2.61 | 4.37 |
| 06:35 | 2 | 13.6 | 69 | 56,779 | 0.38 | 0 | 2.09 | 7.57 | 48.97 | 0 | 1.43 | 3.1 | 5 |
| 06:33 | 2 | 13.6 | 69 | 56,775 | 0.38 | 0 | 2.08 | 7.49 | 50.3 | 0 | 1.43 | 2.61 | 4.37 |